Location: Praha
(50.0830°N, 14.4670°E)
Time: 03:10:17
(UTC+02:00)

ISS - Pass Details

Date: 16 May 2024
Orbit: 409 x 414 km, 51.6° (Epoch: 23 May)

Event Time Altitude Azimuth Distance (km) Brightness Sun altitude
Rises 21:51:58 0° 262° (W) 2,348 0.6 -9.3°
Reaches altitude 10° 21:54:03 10° 264° (W) 1,485 -0.4 -9.5°
Maximum altitude 21:57:23 73° 350° (N) 436 -3.5 -9.9°
Drops below altitude 10° 22:00:43 10° 76° (ENE) 1,484 -1.2 -10.2°
Enters shadow 22:02:42 - 78° (ENE) 2,303 -0.3 -10.5°
